This demonstration page uses our WeatherBlox Daily Observations layout. Learn more.

Left ArrowRight Arrow

Hourly Observations for January 22, 2020

Temp ( °F °C ) Dew Point ( °F °C ) Humidity (%) Winds ( mph kmh ) Pressure ( in mb ) Visibility ( mi km ) Precip ( " mm )
12:02 am 00:02 Cloudy with Light Snow 33 0.6 31 -0.6 92 92 S 13 20 30.00 1016 2 3 0.01 0.25
2:53 am 02:53 Cloudy with Light Snow 34 1 N/A N/A S 10 17 29.91 1013 2 3 0.02 0.51
3:00 am 03:00 Cloudy with Light Snow 34 1 N/A N/A S 10 17 29.94 1014 2 3 0.00 0.00
3:12 am 03:12 Cloudy with Light Snow 34 1 N/A N/A S 9 15 29.93 1013 2 3 0.00 0.00
3:29 am 03:29 Cloudy with Light Snow 34 1 N/A N/A S 10 17 29.92 1013 2 3 0.02 0.51
3:38 am 03:38 Cloudy with Light Snow 34 1 N/A N/A S 12 19 29.92 1013 2 3 0.03 0.76
3:53 am 03:53 Cloudy with Light Snow 34 1 N/A N/A S 10 17 29.88 1012 3 5 0.03 0.76
4:36 am 04:36 Cloudy with Light Snow 34 1 N/A N/A S 10 17 29.90 1012 2 3 0.01 0.25
4:49 am 04:49 Cloudy with Light Snow 34 1 N/A N/A S 12 19 29.89 1012 2 3 0.02 0.51
4:53 am 04:53 Cloudy with Light Snow 34 1 N/A N/A S 13 20 29.86 1011 2 3 0.02 0.51
5:18 am 05:18 Cloudy with Light Snow 34 1 N/A N/A S 13 20 29.89 1012 4 6 0.01 0.25
5:53 am 05:53 Cloudy with Light Rain 33 0.6 32 0 96 96 S 12 19 29.85 1011 5 8 0.02 0.51
6:53 am 06:53 Cloudy 33 0.6 31 -0.6 92 92 S 12 19 29.85 1011 10 16 0.00 0.00
7:53 am 07:53 Cloudy with Light Rain 33 0.6 31 -0.6 92 92 S 10 17 29.84 1011 7 11 0.00 0.00
8:53 am 08:53 Cloudy with Light Rain 33 0.6 31 -0.6 92 92 SSW 12 19 29.84 1011 9 14 0.01 0.25
9:53 am 09:53 Cloudy with Light Rain 33 0.6 31 -0.6 92 92 S 10 17 29.84 1011 10 16 0.00 0.00
10:53 am 10:53 Cloudy 33 0.6 32 0 96 96 S 10 17 29.83 1010 10 16 0.00 0.00
11:03 am 11:03 Cloudy 33 0.6 32 0 96 96 SSW 10 17 29.86 1011 10 16 0.00 0.00
11:53 am 11:53 Cloudy 33 0.6 32 0 96 96 SSW 9 15 29.81 1010 8 13 0.00 0.00
12:53 pm 12:53 Cloudy with Mist and Fog 34 1.1 32 0 92 92 SSW 8 13 29.79 1009 3 5 0.00 0.00
1:03 pm 13:03 Cloudy with Mist and Fog 34 1.1 32 0 92 92 SSW 8 13 29.82 1010 2 3 0.00 0.00
1:14 pm 13:14 Cloudy with Mist and Fog 34 1 34 1 100 100 SSW 8 13 29.82 1010 1 2 0.00 0.00
1:24 pm 13:24 Cloudy with Mist and Fog 34 1.1 33 0.6 97 97 SSW 7 11 29.82 1010 1 1 0.00 0.00
1:53 pm 13:53 Mostly Cloudy with Fog 34 1.1 33 0.6 97 97 SSW 7 11 29.78 1008 0 0 0.00 0.00
2:53 pm 14:53 Mostly Cloudy with Fog 34 1.1 34 1.1 100 100 SSW 5 7 29.78 1008 0 0 0.00 0.00
3:53 pm 15:53 Cloudy with Fog 35 1.7 34 1.1 96 96 SSW 6 9 29.79 1009 1 1 0.00 0.00
4:53 pm 16:53 Cloudy with Mist and Fog 35 1.7 34 1.1 96 96 W 5 7 29.80 1009 1 1 0.00 0.00
5:53 pm 17:53 Cloudy with Mist and Fog 34 1.1 34 1.1 100 100 Calm 29.83 1010 1 2 0.00 0.00
6:25 pm 18:25 Cloudy with Mist and Fog 34 1.1 33 0.6 97 97 NNW 3 6 29.87 1011 3 4 0.00 0.00
6:34 pm 18:34 Cloudy with Mist and Fog 34 1.1 34 1.1 100 100 N 3 6 29.88 1012 3 5 0.00 0.00
6:50 pm 18:50 Cloudy with Mist and Fog 34 1 34 1 100 100 Calm 29.89 1012 3 5 0.00 0.00
6:53 pm 18:53 Cloudy with Mist and Fog 34 1.1 34 1.1 100 100 Calm 29.85 1011 3 5 0.00 0.00
7:08 pm 19:08 Cloudy with Mist and Fog 34 1.1 34 1.1 100 100 Calm 29.90 1012 3 4 0.00 0.00
7:23 pm 19:23 Cloudy with Mist and Fog 34 1 34 1 100 100 Calm 29.90 1012 3 5 0.00 0.00
7:53 pm 19:53 Cloudy with Mist and Fog 34 1.1 33 0.6 97 97 Calm 29.87 1012 3 5 0.00 0.00
8:35 pm 20:35 Cloudy with Mist and Fog 34 1.1 32 0 92 92 NW 5 7 29.92 1013 3 4 0.00 0.00
8:53 pm 20:53 Cloudy with Mist and Fog 34 1.1 33 0.6 97 97 NW 3 6 29.88 1012 3 4 0.00 0.00
9:31 pm 21:31 Cloudy with Mist and Fog 34 1.1 32 0 92 92 NW 7 11 29.94 1014 3 5 0.00 0.00
9:53 pm 21:53 Cloudy with Mist and Fog 34 1.1 33 0.6 97 97 NW 5 7 29.91 1013 3 5 0.00 0.00
10:31 pm 22:31 Cloudy with Mist and Fog 34 1.1 33 0.6 97 97 WNW 6 9 29.95 1014 3 5 0.00 0.00
10:53 pm 22:53 Cloudy with Mist and Fog 34 1.1 33 0.6 97 97 W 5 7 29.92 1013 3 5 0.00 0.00
11:53 pm 23:53 Cloudy with Mist and Fog 34 1.1 33 0.6 97 97 NNW 6 9 29.93 1013 6 10 0.00 0.00

Powered by AerisWeather